Location: Big Sable Point
(44.0575°N, 86.5149°W)
Time: 18:07:35
(UTC-04:00)

Tiangong 2 - Pass Details

Date: 21 July 2018
Orbit: 384 x 393 km, 42.8° (Epoch: 17 October)

Event Time Altitude Azimuth Distance (km) Brightness Sun altitude
Rises 22:06:30 0° 276° (W) 2,264 6.1 -7.5°
Reaches altitude 10° 22:08:37 10° 269° (W) 1,407 4.8 -7.8°
Maximum altitude 22:11:39 43° 197° (SSW) 548 1.7 -8.2°
Enters shadow 22:14:20 12° 125° (SE) 1,269 3.0 -8.6°
